Time,TemperatureF,DewpointF,PressureIn,WindDirection,WindDirectionDegrees,WindSpeedMPH,WindSpeedGustMPH,Humidity,HourlyPrecipIn,Conditions,Clouds,dailyrainin,SoftwareType,DateUTC
2013-07-08 00:02:00,74.8,72.3,30.08,East,92,0.0,4.0,92,0.00,,,0.00,meteohub,2013-07-08 05:02:00,
2013-07-08 00:07:00,74.8,72.3,30.08,East,96,1.0,3.0,92,0.00,,,0.00,meteohub,2013-07-08 05:07:00,
2013-07-08 00:12:00,74.8,72.0,30.08,East,98,3.0,3.0,91,0.00,,,0.00,meteohub,2013-07-08 05:12:00,
2013-07-08 00:17:00,74.8,72.0,30.08,ESE,110,2.0,6.0,91,0.00,,,0.00,meteohub,2013-07-08 05:17:00,
2013-07-08 00:22:00,74.8,72.0,30.08,ESE,110,0.0,6.0,91,0.00,,,0.00,meteohub,2013-07-08 05:22:00,
2013-07-08 00:27:00,74.8,72.0,30.08,ESE,110,0.0,6.0,91,0.00,,,0.00,meteohub,2013-07-08 05:27:00,
2013-07-08 00:32:00,74.7,71.8,30.08,ESE,110,1.0,3.0,91,0.00,,,0.00,meteohub,2013-07-08 05:32:00,
2013-07-08 00:37:00,74.7,71.8,30.08,ESE,113,4.0,4.0,91,0.00,,,0.00,meteohub,2013-07-08 05:37:00,
2013-07-08 00:42:00,74.8,72.0,30.08,ESE,117,2.0,4.0,91,0.00,,,0.00,meteohub,2013-07-08 05:42:00,
2013-07-08 00:47:00,74.8,72.3,30.07,South,171,3.0,5.0,92,0.00,,,0.00,meteohub,2013-07-08 05:47:00,
2013-07-08 00:52:00,74.8,72.0,30.07,SSE,156,5.0,5.0,91,0.00,,,0.00,meteohub,2013-07-08 05:52:00,
2013-07-08 00:57:00,74.8,72.0,30.07,SE,143,3.0,6.0,91,0.00,,,0.00,meteohub,2013-07-08 05:57:00,
2013-07-08 01:07:00,74.8,72.0,30.07,SE,146,0.0,6.0,91,0.00,,,0.00,meteohub,2013-07-08 06:07:00,
2013-07-08 01:12:00,74.8,72.0,30.07,SSE,168,1.0,6.0,91,0.00,,,0.00,meteohub,2013-07-08 06:12:00,
2013-07-08 01:17:00,74.7,71.8,30.07,SSE,168,3.0,4.0,91,0.00,,,0.00,meteohub,2013-07-08 06:17:00,
2013-07-08 01:22:00,74.7,71.8,30.07,SSE,166,1.0,5.0,91,0.00,,,0.00,meteohub,2013-07-08 06:22:00,
2013-07-08 01:27:00,74.7,71.8,30.07,South,175,0.0,5.0,91,0.00,,,0.00,meteohub,2013-07-08 06:27:00,
2013-07-08 01:32:00,74.7,72.1,30.06,South,174,1.0,5.0,92,0.00,,,0.00,meteohub,2013-07-08 06:32:00,
2013-07-08 01:37:00,74.7,71.8,30.06,South,174,2.0,5.0,91,0.00,,,0.00,meteohub,2013-07-08 06:37:00,
2013-07-08 01:42:00,74.7,72.1,30.06,South,177,3.0,5.0,92,0.00,,,0.00,meteohub,2013-07-08 06:42:00,
2013-07-08 01:47:00,74.7,71.8,30.06,SSW,194,0.0,4.0,91,0.00,,,0.00,meteohub,2013-07-08 06:47:00,
2013-07-08 01:52:00,74.5,72.0,30.06,SSW,194,2.0,4.0,92,0.00,,,0.00,meteohub,2013-07-08 06:52:00,
2013-07-08 01:57:00,74.3,71.8,30.06,SSW,194,1.0,4.0,92,0.00,,,0.00,meteohub,2013-07-08 06:57:00,
2013-07-08 02:02:00,74.3,71.8,30.06,SSW,194,0.0,5.0,92,0.00,,,0.00,meteohub,2013-07-08 07:02:00,
2013-07-08 02:07:00,74.1,71.6,30.06,SSW,194,0.0,5.0,92,0.00,,,0.00,meteohub,2013-07-08 07:07:00,
2013-07-08 02:12:00,74.1,71.6,30.06,SSW,194,0.0,5.0,92,0.00,,,0.00,meteohub,2013-07-08 07:12:00,
2013-07-08 02:17:00,74.1,71.6,30.06,SSW,194,0.0,3.0,92,0.00,,,0.00,meteohub,2013-07-08 07:17:00,
2013-07-08 02:22:00,74.1,71.6,30.06,SSW,194,0.0,3.0,92,0.00,,,0.00,meteohub,2013-07-08 07:22:00,
2013-07-08 02:27:00,74.1,71.6,30.06,SSW,194,0.0,2.0,92,0.00,,,0.00,meteohub,2013-07-08 07:27:00,
2013-07-08 02:32:00,73.9,71.4,30.06,SSW,194,0.0,2.0,92,0.00,,,0.00,meteohub,2013-07-08 07:32:00,
2013-07-08 02:37:00,73.9,71.4,30.06,SSW,194,0.0,2.0,92,0.00,,,0.00,meteohub,2013-07-08 07:37:00,
2013-07-08 02:42:00,73.9,71.4,30.06,SSW,194,0.0,2.0,92,0.00,,,0.00,meteohub,2013-07-08 07:42:00,
2013-07-08 02:47:00,73.9,71.4,30.06,SSW,194,0.0,2.0,92,0.00,,,0.00,meteohub,2013-07-08 07:47:00,
2013-07-08 02:52:00,73.9,71.4,30.07,SSW,194,0.0,2.0,92,0.00,,,0.00,meteohub,2013-07-08 07:52:00,
2013-07-08 02:57:00,73.8,71.2,30.07,SSW,194,0.0,1.0,92,0.00,,,0.00,meteohub,2013-07-08 07:57:00,
2013-07-08 03:02:00,73.8,71.2,30.08,SSW,194,0.0,2.0,92,0.00,,,0.00,meteohub,2013-07-08 08:02:00,
2013-07-08 03:07:00,73.6,71.4,30.07,SSW,194,0.0,2.0,93,0.00,,,0.00,meteohub,2013-07-08 08:07:00,
2013-07-08 03:12:00,73.8,71.6,30.07,SSW,194,0.0,2.0,93,0.00,,,0.00,meteohub,2013-07-08 08:12:00,
2013-07-08 03:17:00,73.8,71.6,30.07,SSW,194,1.0,2.0,93,0.00,,,0.00,meteohub,2013-07-08 08:17:00,
2013-07-08 03:22:00,73.8,71.6,30.07,SSW,194,1.0,2.0,93,0.00,,,0.00,meteohub,2013-07-08 08:22:00,
2013-07-08 03:27:00,73.8,71.6,30.07,SSW,194,0.0,3.0,93,0.00,,,0.00,meteohub,2013-07-08 08:27:00,
2013-07-08 03:32:00,73.8,71.6,30.07,SSW,194,1.0,3.0,93,0.00,,,0.00,meteohub,2013-07-08 08:32:00,
2013-07-08 03:37:00,73.8,71.6,30.07,SSW,194,2.0,3.0,93,0.00,,,0.00,meteohub,2013-07-08 08:37:00,
2013-07-08 03:42:00,73.8,71.6,30.07,SSW,194,2.0,3.0,93,0.00,,,0.00,meteohub,2013-07-08 08:42:00,
2013-07-08 03:47:00,73.8,71.6,30.07,SSW,194,2.0,3.0,93,0.00,,,0.00,meteohub,2013-07-08 08:47:00,
2013-07-08 03:52:00,73.8,71.6,30.07,SSW,194,0.0,3.0,93,0.00,,,0.00,meteohub,2013-07-08 08:52:00,
2013-07-08 03:57:00,73.6,71.4,30.08,SSW,194,0.0,4.0,93,0.00,,,0.00,meteohub,2013-07-08 08:57:00,
2013-07-08 04:02:00,73.6,71.4,30.08,SSW,194,1.0,4.0,93,0.00,,,0.00,meteohub,2013-07-08 09:02:00,
2013-07-08 04:07:00,73.6,71.4,30.08,SSW,194,0.0,4.0,93,0.00,,,0.00,meteohub,2013-07-08 09:07:00,
2013-07-08 04:12:00,73.6,71.4,30.08,SSW,194,0.0,2.0,93,0.00,,,0.00,meteohub,2013-07-08 09:12:00,
2013-07-08 04:17:00,73.8,71.6,30.08,SSW,194,0.0,3.0,93,0.00,,,0.00,meteohub,2013-07-08 09:17:00,
2013-07-08 04:22:00,73.8,71.6,30.08,SSW,194,0.0,3.0,93,0.00,,,0.00,meteohub,2013-07-08 09:22:00,
2013-07-08 04:27:00,73.6,71.4,30.08,SSW,194,1.0,3.0,93,0.00,,,0.00,meteohub,2013-07-08 09:27:00,
2013-07-08 04:32:00,73.8,71.6,30.09,SSW,194,2.0,4.0,93,0.00,,,0.00,meteohub,2013-07-08 09:32:00,
2013-07-08 04:37:00,73.8,71.6,30.09,SSW,194,1.0,4.0,93,0.00,,,0.00,meteohub,2013-07-08 09:37:00,
2013-07-08 04:42:00,73.8,71.6,30.09,SSW,194,1.0,4.0,93,0.00,,,0.00,meteohub,2013-07-08 09:42:00,
2013-07-08 04:47:00,73.8,71.6,30.09,SSW,194,1.0,2.0,93,0.00,,,0.00,meteohub,2013-07-08 09:47:00,
2013-07-08 04:52:00,73.8,71.6,30.09,SSW,194,0.0,2.0,93,0.00,,,0.00,meteohub,2013-07-08 09:52:00,
2013-07-08 04:57:00,73.9,71.8,30.09,SSW,194,0.0,4.0,93,0.00,,,0.00,meteohub,2013-07-08 09:57:00,
2013-07-08 05:02:00,73.9,71.8,30.09,ENE,57,0.0,4.0,93,0.00,,,0.00,meteohub,2013-07-08 10:02:00,
2013-07-08 05:07:00,73.9,71.8,30.09,ENE,59,0.0,4.0,93,0.00,,,0.00,meteohub,2013-07-08 10:07:00,
2013-07-08 05:12:00,73.9,71.8,30.10,ENE,61,0.0,3.0,93,0.00,,,0.00,meteohub,2013-07-08 10:12:00,
2013-07-08 05:17:00,73.9,71.8,30.10,ENE,61,0.0,3.0,93,0.00,,,0.00,meteohub,2013-07-08 10:17:00,
2013-07-08 05:22:00,73.9,71.8,30.10,ENE,61,0.0,2.0,93,0.00,,,0.00,meteohub,2013-07-08 10:22:00,
2013-07-08 05:27:00,73.9,71.8,30.10,ENE,61,1.0,2.0,93,0.00,,,0.00,meteohub,2013-07-08 10:27:00,
2013-07-08 05:32:00,73.9,71.8,30.10,ENE,61,1.0,2.0,93,0.00,,,0.00,meteohub,2013-07-08 10:32:00,
2013-07-08 05:37:00,73.9,71.8,30.10,ENE,61,0.0,1.0,93,0.00,,,0.00,meteohub,2013-07-08 10:37:00,
2013-07-08 05:42:00,73.9,71.8,30.11,ENE,61,0.0,1.0,93,0.00,,,0.00,meteohub,2013-07-08 10:42:00,
2013-07-08 05:47:00,73.8,71.6,30.11,ENE,61,0.0,1.0,93,0.00,,,0.00,meteohub,2013-07-08 10:47:00,
2013-07-08 05:52:00,73.8,71.6,30.11,ENE,61,0.0,1.0,93,0.00,,,0.00,meteohub,2013-07-08 10:52:00,
2013-07-08 05:57:00,73.8,71.6,30.11,ENE,61,0.0,1.0,93,0.00,,,0.00,meteohub,2013-07-08 10:57:00,
2013-07-08 06:02:00,73.8,71.6,30.11,ENE,61,0.0,1.0,93,0.00,,,0.00,meteohub,2013-07-08 11:02:00,
2013-07-08 06:07:00,73.8,71.6,30.11,ENE,65,1.0,0.0,93,0.00,,,0.00,meteohub,2013-07-08 11:07:00,
2013-07-08 06:12:00,73.8,71.6,30.11,East,89,1.0,3.0,93,0.00,,,0.00,meteohub,2013-07-08 11:12:00,
2013-07-08 06:17:00,73.9,71.8,30.11,East,90,0.0,5.0,93,0.00,,,0.00,meteohub,2013-07-08 11:17:00,
2013-07-08 06:22:00,74.1,72.0,30.11,East,90,0.0,5.0,93,0.00,,,0.00,meteohub,2013-07-08 11:22:00,
2013-07-08 06:27:00,74.1,72.0,30.12,East,90,0.0,5.0,93,0.00,,,0.00,meteohub,2013-07-08 11:27:00,
2013-07-08 06:32:00,74.3,72.1,30.12,East,91,1.0,3.0,93,0.00,,,0.00,meteohub,2013-07-08 11:32:00,
2013-07-08 06:37:00,74.5,72.3,30.12,East,91,0.0,3.0,93,0.00,,,0.00,meteohub,2013-07-08 11:37:00,
2013-07-08 06:42:00,74.7,72.1,30.12,East,92,0.0,3.0,92,0.00,,,0.00,meteohub,2013-07-08 11:42:00,
2013-07-08 06:47:00,74.7,72.1,30.12,East,92,0.0,3.0,92,0.00,,,0.00,meteohub,2013-07-08 11:47:00,
2013-07-08 06:52:00,74.8,72.3,30.13,East,92,0.0,3.0,92,0.00,,,0.00,meteohub,2013-07-08 11:52:00,
2013-07-08 06:57:00,75.0,72.5,30.13,East,92,0.0,3.0,92,0.00,,,0.00,meteohub,2013-07-08 11:57:00,
2013-07-08 07:02:00,75.2,72.7,30.13,East,92,0.0,2.0,92,0.00,,,0.00,meteohub,2013-07-08 12:02:00,
2013-07-08 07:07:00,75.6,73.0,30.13,East,92,0.0,2.0,92,0.00,,,0.00,meteohub,2013-07-08 12:07:00,
2013-07-08 07:12:00,75.6,73.0,30.13,East,92,0.0,1.0,92,0.00,,,0.00,meteohub,2013-07-08 12:12:00,
2013-07-08 07:17:00,75.7,72.9,30.13,East,92,0.0,1.0,91,0.00,,,0.00,meteohub,2013-07-08 12:17:00,
2013-07-08 07:22:00,75.9,73.0,30.14,East,92,0.0,1.0,91,0.00,,,0.00,meteohub,2013-07-08 12:22:00,
2013-07-08 07:27:00,76.3,73.4,30.14,East,91,0.0,2.0,91,0.00,,,0.00,meteohub,2013-07-08 12:27:00,
2013-07-08 07:32:00,76.5,73.6,30.14,East,83,1.0,2.0,91,0.00,,,0.00,meteohub,2013-07-08 12:32:00,
2013-07-08 07:37:00,76.6,73.8,30.14,ENE,72,1.0,3.0,91,0.00,,,0.00,meteohub,2013-07-08 12:37:00,
2013-07-08 07:42:00,76.6,73.8,30.14,ENE,72,2.0,3.0,91,0.00,,,0.00,meteohub,2013-07-08 12:42:00,
2013-07-08 07:47:00,76.6,73.8,30.14,ENE,72,2.0,3.0,91,0.00,,,0.00,meteohub,2013-07-08 12:47:00,
2013-07-08 07:52:00,76.6,73.8,30.14,ENE,72,0.0,3.0,91,0.00,,,0.00,meteohub,2013-07-08 12:52:00,
2013-07-08 07:57:00,76.8,73.9,30.14,ENE,72,0.0,3.0,91,0.00,,,0.00,meteohub,2013-07-08 12:57:00,
2013-07-08 08:02:00,77.2,73.9,30.15,ENE,72,1.0,3.0,90,0.00,,,0.00,meteohub,2013-07-08 13:02:00,
2013-07-08 08:07:00,77.2,73.9,30.15,ENE,72,0.0,2.0,90,0.00,,,0.00,meteohub,2013-07-08 13:07:00,
2013-07-08 08:12:00,77.4,74.1,30.15,ENE,72,0.0,2.0,90,0.00,,,0.00,meteohub,2013-07-08 13:12:00,
2013-07-08 08:17:00,77.5,74.3,30.15,ENE,73,0.0,2.0,90,0.00,,,0.00,meteohub,2013-07-08 13:17:00,
2013-07-08 08:22:00,78.1,74.5,30.15,ENE,73,0.0,2.0,89,0.00,,,0.00,meteohub,2013-07-08 13:22:00,
2013-07-08 08:27:00,78.4,74.8,30.15,ENE,73,0.0,2.0,89,0.00,,,0.00,meteohub,2013-07-08 13:27:00,
2013-07-08 08:32:00,78.6,74.8,30.15,ENE,75,1.0,1.0,88,0.00,,,0.00,meteohub,2013-07-08 13:32:00,
2013-07-08 08:37:00,78.8,74.7,30.15,ENE,75,0.0,1.0,87,0.00,,,0.00,meteohub,2013-07-08 13:37:00,
2013-07-08 08:42:00,79.2,75.0,30.16,ENE,75,0.0,2.0,87,0.00,,,0.00,meteohub,2013-07-08 13:42:00,
2013-07-08 08:47:00,79.5,75.4,30.15,ENE,75,0.0,2.0,87,0.00,,,0.00,meteohub,2013-07-08 13:47:00,
2013-07-08 08:52:00,79.7,74.8,30.16,East,81,0.0,3.0,85,0.00,,,0.00,meteohub,2013-07-08 13:52:00,
2013-07-08 08:57:00,79.9,75.0,30.16,SE,133,1.0,3.0,85,0.00,,,0.00,meteohub,2013-07-08 13:57:00,
2013-07-08 09:02:00,80.2,75.4,30.16,SE,133,0.0,4.0,85,0.00,,,0.00,meteohub,2013-07-08 14:02:00,
2013-07-08 09:07:00,80.8,75.9,30.16,SSW,197,2.0,4.0,85,0.00,,,0.00,meteohub,2013-07-08 14:07:00,
2013-07-08 09:12:00,81.0,75.4,30.16,SSE,164,1.0,4.0,83,0.00,,,0.00,meteohub,2013-07-08 14:12:00,
2013-07-08 09:17:00,81.1,75.6,30.16,South,175,4.0,4.0,83,0.00,,,0.00,meteohub,2013-07-08 14:17:00,
2013-07-08 09:22:00,81.9,76.1,30.16,South,175,0.0,5.0,83,0.00,,,0.00,meteohub,2013-07-08 14:22:00,
2013-07-08 09:27:00,82.9,76.8,30.16,SSW,204,3.0,5.0,82,0.00,,,0.00,meteohub,2013-07-08 14:27:00,
2013-07-08 09:32:00,83.7,76.5,30.16,SSE,159,1.0,5.0,79,0.00,,,0.00,meteohub,2013-07-08 14:32:00,
2013-07-08 09:37:00,84.0,76.1,30.16,South,191,4.0,5.0,77,0.00,,,0.00,meteohub,2013-07-08 14:37:00,
2013-07-08 09:42:00,83.7,75.7,30.16,South,174,1.0,5.0,77,0.00,,,0.00,meteohub,2013-07-08 14:42:00,
2013-07-08 09:47:00,83.8,75.9,30.16,South,175,1.0,5.0,77,0.00,,,0.00,meteohub,2013-07-08 14:47:00,
2013-07-08 09:52:00,83.8,75.4,30.16,SE,144,1.0,5.0,76,0.00,,,0.00,meteohub,2013-07-08 14:52:00,
2013-07-08 09:57:00,83.8,74.7,30.16,SSE,161,4.0,4.0,74,0.00,,,0.00,meteohub,2013-07-08 14:57:00,
2013-07-08 10:02:00,83.7,74.8,30.16,SSW,195,2.0,6.0,75,0.00,,,0.00,meteohub,2013-07-08 15:02:00,
2013-07-08 10:07:00,84.0,74.8,30.16,South,174,0.0,6.0,74,0.00,,,0.00,meteohub,2013-07-08 15:07:00,
2013-07-08 10:12:00,84.0,74.8,30.16,South,188,2.0,6.0,74,0.00,,,0.00,meteohub,2013-07-08 15:12:00,
2013-07-08 10:17:00,84.4,75.2,30.16,SSE,159,1.0,6.0,74,0.00,,,0.00,meteohub,2013-07-08 15:17:00,
2013-07-08 10:22:00,84.7,74.7,30.16,South,184,0.0,6.0,72,0.00,,,0.00,meteohub,2013-07-08 15:22:00,
2013-07-08 10:27:00,85.1,75.0,30.16,SE,144,1.0,7.0,72,0.00,,,0.00,meteohub,2013-07-08 15:27:00,
2013-07-08 10:32:00,85.3,75.6,30.16,SE,143,4.0,8.0,73,0.00,,,0.00,meteohub,2013-07-08 15:32:00,
2013-07-08 10:37:00,85.1,75.0,30.16,South,175,3.0,8.0,72,0.00,,,0.00,meteohub,2013-07-08 15:37:00,
2013-07-08 10:42:00,85.1,75.0,30.16,SSE,167,2.0,7.0,72,0.00,,,0.00,meteohub,2013-07-08 15:42:00,
2013-07-08 10:47:00,85.1,75.4,30.16,South,181,3.0,7.0,73,0.00,,,0.00,meteohub,2013-07-08 15:47:00,
2013-07-08 10:52:00,84.9,75.7,30.15,South,190,2.0,7.0,74,0.00,,,0.00,meteohub,2013-07-08 15:52:00,
2013-07-08 10:57:00,85.6,75.6,30.15,South,186,4.0,7.0,72,0.00,,,0.00,meteohub,2013-07-08 15:57:00,
2013-07-08 11:02:00,86.2,75.7,30.15,South,181,2.0,8.0,71,0.00,,,0.00,meteohub,2013-07-08 16:02:00,
2013-07-08 11:07:00,86.7,76.1,30.15,SW,214,6.0,8.0,71,0.00,,,0.00,meteohub,2013-07-08 16:07:00,
2013-07-08 11:12:00,86.9,75.9,30.15,SW,216,3.0,9.0,70,0.00,,,0.00,meteohub,2013-07-08 16:12:00,
2013-07-08 11:17:00,87.1,76.5,30.15,SE,145,3.0,9.0,71,0.00,,,0.00,meteohub,2013-07-08 16:17:00,
2013-07-08 11:22:00,87.3,76.3,30.15,South,188,4.0,9.0,70,0.00,,,0.00,meteohub,2013-07-08 16:22:00,
2013-07-08 11:27:00,87.4,76.5,30.15,ESE,115,3.0,8.0,70,0.00,,,0.00,meteohub,2013-07-08 16:27:00,
2013-07-08 11:32:00,88.0,76.5,30.15,SW,218,6.0,8.0,69,0.00,,,0.00,meteohub,2013-07-08 16:32:00,
2013-07-08 11:37:00,88.3,76.8,30.15,SE,124,3.0,8.0,69,0.00,,,0.00,meteohub,2013-07-08 16:37:00,
2013-07-08 11:42:00,88.5,76.6,30.15,SSW,194,3.0,8.0,68,0.00,,,0.00,meteohub,2013-07-08 16:42:00,
2013-07-08 11:47:00,88.5,76.1,30.15,South,182,3.0,8.0,67,0.00,,,0.00,meteohub,2013-07-08 16:47:00,
2013-07-08 11:52:00,88.3,75.9,30.15,SSE,160,2.0,8.0,67,0.00,,,0.00,meteohub,2013-07-08 16:52:00,
2013-07-08 11:57:00,88.5,76.6,30.15,South,178,1.0,7.0,68,0.00,,,0.00,meteohub,2013-07-08 16:57:00,
2013-07-08 12:07:00,89.1,76.3,30.15,South,188,2.0,8.0,66,0.00,,,0.00,meteohub,2013-07-08 17:07:00,
2013-07-08 12:12:00,88.9,74.7,30.15,SW,224,3.0,8.0,63,0.00,,,0.00,meteohub,2013-07-08 17:12:00,
2013-07-08 12:17:00,89.2,75.9,30.14,South,178,2.0,8.0,65,0.00,,,0.00,meteohub,2013-07-08 17:17:00,
2013-07-08 12:22:00,90.1,76.8,30.14,South,179,3.0,8.0,65,0.00,,,0.00,meteohub,2013-07-08 17:22:00,
2013-07-08 12:27:00,90.3,75.6,30.14,SE,142,7.0,7.0,62,0.00,,,0.00,meteohub,2013-07-08 17:27:00,
2013-07-08 12:32:00,89.2,75.4,30.14,SSW,208,4.0,9.0,64,0.00,,,0.00,meteohub,2013-07-08 17:32:00,
2013-07-08 12:37:00,89.1,75.2,30.14,South,169,3.0,9.0,64,0.00,,,0.00,meteohub,2013-07-08 17:37:00,
2013-07-08 12:42:00,89.4,75.6,30.14,South,185,3.0,9.0,64,0.00,,,0.00,meteohub,2013-07-08 17:42:00,
2013-07-08 12:52:00,90.0,75.7,30.14,SSW,198,7.0,9.0,63,0.00,,,0.00,meteohub,2013-07-08 17:52:00,
2013-07-08 12:57:00,90.0,75.2,30.14,SSE,157,4.0,9.0,62,0.00,,,0.00,meteohub,2013-07-08 17:57:00,
2013-07-08 13:07:00,90.1,76.3,30.14,SSW,209,6.0,8.0,64,0.00,,,0.00,meteohub,2013-07-08 18:07:00,
2013-07-08 13:12:00,90.5,76.1,30.14,SW,221,2.0,8.0,63,0.00,,,0.00,meteohub,2013-07-08 18:12:00,
2013-07-08 13:17:00,91.2,76.8,30.14,SSE,161,2.0,7.0,63,0.00,,,0.00,meteohub,2013-07-08 18:17:00,
2013-07-08 13:27:00,91.0,76.3,30.13,SSE,157,1.0,9.0,62,0.00,,,0.00,meteohub,2013-07-08 18:27:00,
2013-07-08 13:38:00,90.9,76.1,30.13,SSW,205,3.0,10.0,62,0.00,,,0.00,meteohub,2013-07-08 18:38:00,
2013-07-08 13:47:00,90.3,77.4,30.12,South,188,4.0,10.0,66,0.00,,,0.00,meteohub,2013-07-08 18:47:00,
2013-07-08 13:52:00,91.2,76.8,30.12,SSW,197,1.0,10.0,63,0.00,,,0.00,meteohub,2013-07-08 18:52:00,
2013-07-08 14:02:00,91.4,76.1,30.12,SSW,195,0.0,7.0,61,0.00,,,0.00,meteohub,2013-07-08 19:02:00,
2013-07-08 14:12:00,92.1,75.7,30.11,SSE,165,4.0,8.0,59,0.00,,,0.00,meteohub,2013-07-08 19:12:00,
2013-07-08 14:17:00,91.9,75.6,30.11,SE,138,3.0,8.0,59,0.00,,,0.00,meteohub,2013-07-08 19:17:00,
2013-07-08 14:28:00,93.4,77.9,30.10,SW,231,2.0,7.0,61,0.00,,,0.00,meteohub,2013-07-08 19:28:00,
2013-07-08 14:38:00,93.6,76.1,30.09,SE,130,0.0,6.0,57,0.00,,,0.00,meteohub,2013-07-08 19:38:00,
2013-07-08 14:47:00,92.1,76.3,30.09,South,186,2.0,8.0,60,0.00,,,0.00,meteohub,2013-07-08 19:47:00,
2013-07-08 14:52:00,92.8,76.5,30.09,South,180,2.0,8.0,59,0.00,,,0.00,meteohub,2013-07-08 19:52:00,
2013-07-08 14:57:00,93.2,75.7,30.10,SW,215,4.0,7.0,57,0.00,,,0.00,meteohub,2013-07-08 19:57:00,
2013-07-08 15:07:00,94.1,75.9,30.09,WNW,297,0.0,7.0,56,0.00,,,0.00,meteohub,2013-07-08 20:07:00,
2013-07-08 15:17:00,94.6,75.9,30.09,SW,220,1.0,7.0,55,0.00,,,0.00,meteohub,2013-07-08 20:17:00,
2013-07-08 15:22:00,94.6,77.5,30.09,NW,319,0.0,7.0,58,0.00,,,0.00,meteohub,2013-07-08 20:22:00,
2013-07-08 15:37:00,92.3,75.9,30.09,SSW,199,4.0,6.0,59,0.00,,,0.00,meteohub,2013-07-08 20:37:00,
2013-07-08 15:42:00,91.8,75.9,30.09,South,188,2.0,7.0,60,0.00,,,0.00,meteohub,2013-07-08 20:42:00,
2013-07-08 15:47:00,91.9,77.0,30.09,South,187,1.0,7.0,62,0.00,,,0.00,meteohub,2013-07-08 20:47:00,
2013-07-08 15:57:00,92.5,76.1,30.08,South,186,3.0,7.0,59,0.00,,,0.00,meteohub,2013-07-08 20:57:00,
2013-07-08 16:07:00,93.6,77.5,30.08,WSW,245,1.0,7.0,60,0.00,,,0.00,meteohub,2013-07-08 21:07:00,
2013-07-08 16:12:00,93.7,76.6,30.08,SSW,199,1.0,6.0,58,0.00,,,0.00,meteohub,2013-07-08 21:12:00,
2013-07-08 16:22:00,92.8,75.9,30.09,South,186,3.0,8.0,58,0.00,,,0.00,meteohub,2013-07-08 21:22:00,
2013-07-08 16:27:00,92.1,75.7,30.08,South,180,3.0,7.0,59,0.00,,,0.00,meteohub,2013-07-08 21:27:00,
2013-07-08 16:32:00,91.6,75.7,30.08,SSW,211,3.0,9.0,60,0.00,,,0.00,meteohub,2013-07-08 21:32:00,
2013-07-08 16:43:00,91.6,76.3,30.08,SSE,163,5.0,9.0,61,0.00,,,0.00,meteohub,2013-07-08 21:43:00,
2013-07-08 16:52:00,91.0,76.6,30.08,SSE,167,3.0,12.0,63,0.00,,,0.00,meteohub,2013-07-08 21:52:00,
2013-07-08 16:57:00,90.1,76.8,30.09,South,169,4.0,12.0,65,0.00,,,0.00,meteohub,2013-07-08 21:57:00,
2013-07-08 17:02:00,89.6,75.7,30.09,SSW,198,8.0,12.0,64,0.00,,,0.00,meteohub,2013-07-08 22:02:00,
2013-07-08 17:07:00,88.9,76.1,30.09,SSE,161,8.0,11.0,66,0.00,,,0.00,meteohub,2013-07-08 22:07:00,
2013-07-08 17:13:00,87.4,76.8,30.09,South,171,4.0,14.0,71,0.00,,,0.00,meteohub,2013-07-08 22:13:00,
2013-07-08 17:22:00,85.8,76.1,30.09,SE,135,4.0,15.0,73,0.00,,,0.00,meteohub,2013-07-08 22:22:00,
2013-07-08 17:27:00,85.3,76.1,30.09,South,176,9.0,15.0,74,0.00,,,0.00,meteohub,2013-07-08 22:27:00,
2013-07-08 17:37:00,83.7,75.2,30.10,SSE,153,4.0,17.0,76,0.00,,,0.00,meteohub,2013-07-08 22:37:00,
2013-07-08 17:42:00,83.3,75.4,30.10,SSE,166,2.0,17.0,77,0.00,,,0.00,meteohub,2013-07-08 22:42:00,
2013-07-08 17:47:00,82.9,75.4,30.10,South,173,3.0,17.0,78,0.00,,,0.00,meteohub,2013-07-08 22:47:00,
2013-07-08 17:57:00,82.2,74.7,30.11,South,182,4.0,10.0,78,0.00,,,0.00,meteohub,2013-07-08 22:57:00,
2013-07-08 18:03:00,82.0,74.8,30.11,South,175,4.0,10.0,79,0.00,,,0.00,meteohub,2013-07-08 23:03:00,
2013-07-08 18:12:00,81.1,74.7,30.12,WSW,239,4.0,11.0,81,0.00,,,0.00,meteohub,2013-07-08 23:12:00,
2013-07-08 18:17:00,80.4,74.5,30.13,SW,236,0.0,8.0,82,0.00,,,0.00,meteohub,2013-07-08 23:17:00,
2013-07-08 18:27:00,78.6,73.4,30.13,South,186,3.0,8.0,84,0.00,,,0.00,meteohub,2013-07-08 23:27:00,
2013-07-08 18:32:00,78.3,74.1,30.13,South,186,2.0,7.0,87,0.01,,,0.01,meteohub,2013-07-08 23:32:00,
2013-07-08 18:42:00,77.2,73.4,30.13,South,189,2.0,5.0,88,0.03,,,0.03,meteohub,2013-07-08 23:42:00,
2013-07-08 18:52:00,76.8,73.9,30.14,South,188,2.0,4.0,91,0.05,,,0.05,meteohub,2013-07-08 23:52:00,
2013-07-08 18:57:00,76.8,73.9,30.13,South,173,1.0,4.0,91,0.08,,,0.08,meteohub,2013-07-08 23:57:00,
2013-07-08 19:02:00,76.6,73.8,30.12,South,173,1.0,4.0,91,0.16,,,0.16,meteohub,2013-07-09 00:02:00,
2013-07-08 19:07:00,76.5,73.9,30.12,South,173,1.0,4.0,92,0.19,,,0.19,meteohub,2013-07-09 00:07:00,
2013-07-08 19:12:00,76.6,74.1,30.12,South,173,1.0,3.0,92,0.21,,,0.21,meteohub,2013-07-09 00:12:00,
2013-07-08 19:17:00,76.5,73.9,30.11,South,173,2.0,3.0,92,0.21,,,0.21,meteohub,2013-07-09 00:17:00,
2013-07-08 19:22:00,76.6,74.1,30.11,South,173,1.0,3.0,92,0.22,,,0.22,meteohub,2013-07-09 00:22:00,
2013-07-08 19:27:00,76.5,73.9,30.11,South,173,3.0,4.0,92,0.23,,,0.23,meteohub,2013-07-09 00:27:00,
2013-07-08 19:32:00,76.5,74.3,30.12,South,172,3.0,4.0,93,0.22,,,0.23,meteohub,2013-07-09 00:32:00,
2013-07-08 19:42:00,76.5,74.3,30.12,South,190,3.0,7.0,93,0.19,,,0.23,meteohub,2013-07-09 00:42:00,
2013-07-08 19:47:00,76.3,73.8,30.12,SSE,165,0.0,7.0,92,0.18,,,0.23,meteohub,2013-07-09 00:47:00,
2013-07-08 19:52:00,75.9,73.4,30.12,WSW,253,0.0,7.0,92,0.18,,,0.23,meteohub,2013-07-09 00:52:00,
2013-07-08 20:02:00,75.7,73.2,30.12,WSW,253,0.0,3.0,92,0.06,,,0.23,meteohub,2013-07-09 01:02:00,
2013-07-08 20:13:00,75.6,73.0,30.11,WSW,253,0.0,1.0,92,0.02,,,0.23,meteohub,2013-07-09 01:13:00,
2013-07-08 20:22:00,75.4,72.9,30.11,WSW,253,0.0,2.0,92,0.01,,,0.23,meteohub,2013-07-09 01:22:00,
2013-07-08 20:27:00,75.6,73.0,30.11,WSW,253,0.0,2.0,92,0.00,,,0.23,meteohub,2013-07-09 01:27:00,
2013-07-08 20:37:00,75.6,73.4,30.10,WSW,253,0.0,1.0,93,0.00,,,0.23,meteohub,2013-07-09 01:37:00,
2013-07-08 20:42:00,75.6,73.4,30.10,WSW,253,1.0,1.0,93,0.00,,,0.23,meteohub,2013-07-09 01:42:00,
2013-07-08 20:52:00,75.2,73.0,30.10,WSW,253,0.0,1.0,93,0.00,,,0.23,meteohub,2013-07-09 01:52:00,
2013-07-08 21:02:00,74.8,72.7,30.11,WSW,253,0.0,0.0,93,0.00,,,0.23,meteohub,2013-07-09 02:02:00,
2013-07-08 21:07:00,75.0,73.2,30.11,WSW,253,0.0,1.0,94,0.00,,,0.23,meteohub,2013-07-09 02:07:00,
2013-07-08 21:12:00,75.2,73.4,30.11,WSW,253,0.0,2.0,94,0.00,,,0.23,meteohub,2013-07-09 02:12:00,
2013-07-08 21:17:00,75.4,73.6,30.12,WSW,253,0.0,2.0,94,0.00,,,0.23,meteohub,2013-07-09 02:17:00,
2013-07-08 21:22:00,75.4,73.2,30.11,WSW,253,0.0,2.0,93,0.00,,,0.23,meteohub,2013-07-09 02:22:00,
2013-07-08 21:27:00,75.4,73.6,30.12,WSW,253,0.0,1.0,94,0.00,,,0.23,meteohub,2013-07-09 02:27:00,
2013-07-08 21:37:00,75.4,73.6,30.12,WSW,253,0.0,1.0,94,0.00,,,0.23,meteohub,2013-07-09 02:37:00,
2013-07-08 21:47:00,75.6,73.8,30.13,WSW,253,0.0,2.0,94,0.00,,,0.23,meteohub,2013-07-09 02:47:00,
2013-07-08 21:52:00,75.6,73.8,30.14,WSW,253,0.0,2.0,94,0.00,,,0.23,meteohub,2013-07-09 02:52:00,
2013-07-08 21:57:00,75.7,73.9,30.14,WSW,253,0.0,2.0,94,0.00,,,0.23,meteohub,2013-07-09 02:57:00,
2013-07-08 22:07:00,75.7,73.9,30.14,WSW,253,0.0,0.0,94,0.00,,,0.23,meteohub,2013-07-09 03:07:00,
2013-07-08 22:12:00,75.9,74.1,30.15,WSW,253,0.0,2.0,94,0.00,,,0.23,meteohub,2013-07-09 03:12:00,
2013-07-08 22:17:00,76.1,74.3,30.15,WSW,253,0.0,2.0,94,0.00,,,0.23,meteohub,2013-07-09 03:17:00,
2013-07-08 22:22:00,76.1,73.9,30.15,WSW,253,0.0,2.0,93,0.00,,,0.23,meteohub,2013-07-09 03:22:00,
2013-07-08 22:32:00,76.3,74.1,30.15,SSW,200,4.0,4.0,93,0.00,,,0.23,meteohub,2013-07-09 03:32:00,
2013-07-08 22:37:00,76.3,73.8,30.15,SSW,200,1.0,4.0,92,0.00,,,0.23,meteohub,2013-07-09 03:37:00,
2013-07-08 22:42:00,76.3,73.8,30.16,SSW,199,2.0,4.0,92,0.00,,,0.23,meteohub,2013-07-09 03:42:00,
2013-07-08 22:47:00,76.5,73.9,30.15,SSW,199,1.0,4.0,92,0.00,,,0.23,meteohub,2013-07-09 03:47:00,
2013-07-08 22:57:00,76.6,74.1,30.15,SSW,199,0.0,4.0,92,0.00,,,0.23,meteohub,2013-07-09 03:57:00,
2013-07-08 23:02:00,76.5,73.6,30.15,SSW,199,0.0,4.0,91,0.00,,,0.23,meteohub,2013-07-09 04:02:00,
2013-07-08 23:07:00,76.3,73.8,30.15,SSW,199,0.0,4.0,92,0.00,,,0.23,meteohub,2013-07-09 04:07:00,
2013-07-08 23:12:00,76.3,73.8,30.15,SSW,199,0.0,1.0,92,0.00,,,0.23,meteohub,2013-07-09 04:12:00,
2013-07-08 23:17:00,76.1,73.6,30.15,SSW,199,0.0,1.0,92,0.00,,,0.23,meteohub,2013-07-09 04:17:00,
2013-07-08 23:22:00,75.9,73.4,30.15,SSW,199,0.0,1.0,92,0.00,,,0.23,meteohub,2013-07-09 04:22:00,
2013-07-08 23:27:00,75.7,73.2,30.15,SSW,199,0.0,1.0,92,0.00,,,0.23,meteohub,2013-07-09 04:27:00,
2013-07-08 23:32:00,75.7,73.6,30.15,SSW,199,0.0,0.0,93,0.00,,,0.23,meteohub,2013-07-09 04:32:00,
2013-07-08 23:37:00,75.6,73.4,30.14,SSW,199,0.0,0.0,93,0.00,,,0.23,meteohub,2013-07-09 04:37:00,
2013-07-08 23:42:00,75.6,73.4,30.15,SSW,199,0.0,0.0,93,0.00,,,0.23,meteohub,2013-07-09 04:42:00,
2013-07-08 23:47:00,75.6,73.4,30.14,SSW,199,0.0,0.0,93,0.00,,,0.23,meteohub,2013-07-09 04:47:00,
2013-07-08 23:52:00,75.4,73.2,30.14,SSW,199,0.0,0.0,93,0.00,,,0.23,meteohub,2013-07-09 04:52:00,
2013-07-08 23:57:00,75.4,73.2,30.14,SSW,199,0.0,0.0,93,0.00,,,0.23,meteohub,2013-07-09 04:57:00,